Temperature
21 18 18 18 19 19 21 21 20 22 23 24 23 23 25 26 25 25 24 24 24 24 25 25 24 24 23 23 22 22 21 20 20 19 19 18 18 17 17 17 17 17 16 16
19 18 19 20 21 21 21 20 20 21 23 24 24 23 23 24 25 25 25 25 25 24 24 24 24 23 23 23 22 22 21 21 20 19 19 18 18 17 17 16 16 16 16 16
18 19 21 21 21 21 21 20 21 21 23 23 24 22 22 23 25 26 26 26 26 26 25 24 24 23 23 22 22 21 21 20 19 19 18 18 17 17 16 16 15 15 15 15
19 20 22 22 21 21 20 22 22 22 22 20 23 20 21 22 23 23 25 26 26 25 25 24 23 23 22 22 21 21 20 19 19 18 18 18 17 16 16 15 15 15 14 14
20 21 21 21 22 23 21 23 23 23 22 20 20 20 19 20 22 23 23 25 25 24 24 23 23 22 22 21 21 20 19 19 18 18 17 17 16 16 16 15 14 14 13 13
20 22 22 22 23 23 23 23 22 19 18 19 20 20 19 20 22 22 22 24 25 24 23 22 21 20 20 19 19 19 18 18 18 17 17 16 16 16 15 14 13 13 13 12
20 21 22 23 23 23 23 19 18 19 17 18 19 20 19 21 22 22 21 22 23 22 21 20 19 19 18 18 18 17 18 17 17 16 16 15 15 14 14 13 13 12 12 11
18 19 21 23 22 21 21 19 18 18 18 18 20 20 20 21 21 21 21 20 20 19 19 18 18 18 17 17 17 17 17 16 16 15 15 14 14 13 12 12 12 11 11 10
18 19 22 23 24 22 21 19 18 18 18 18 18 20 21 20 19 19 18 17 17 17 17 17 17 16 16 16 16 16 16 15 15 14 14 13 12 12 11 11 10 10 9 9
19 20 21 24 24 23 21 20 16 17 17 17 19 20 18 19 18 17 16 15 15 15 16 16 15 15 15 15 15 15 14 14 13 13 12 12 11 11 10 10 9 9 8 8
19 19 20 22 22 22 22 21 18 16 16 17 18 17 18 17 16 16 15 15 14 14 15 15 15 15 15 14 14 14 13 13 12 11 11 10 10 9 9 9 8 8 7 7
17 16 18 20 21 23 22 21 18 18 17 16 16 16 17 15 15 15 14 14 14 14 14 14 14 14 14 13 13 12 12 11 11 10 10 9 9 8 8 8 7 7 7 6
17 16 17 18 18 20 21 21 20 18 16 16 16 15 15 14 14 14 13 13 13 13 13 13 12 12 12 12 11 11 10 10 9 9 9 8 8 7 7 7 6 6 6 6
17 15 16 17 17 19 19 20 20 18 16 16 16 14 14 13 13 12 12 12 12 12 11 11 11 11 11 10 10 10 9 9 8 8 8 7 7 6 6 6 5 5 5 5
15 15 16 17 18 19 19 20 20 19 18 16 15 14 13 12 12 12 11 11 11 11 10 10 10 10 10 9 9 8 8 8 7 7 6 6 5 5 5 5 5 4 4 4
13 15 15 15 17 18 18 18 19 18 18 16 14 13 12 11 11 10 10 10 10 10 10 9 9 9 9 8 8 8 7 7 6 6 5 5 5 4 4 4 4 4 4 3
13 13 13 14 16 17 15 16 16 15 15 15 13 12 11 10 9 9 9 9 9 9 9 8 8 8 8 7 7 6 6 5 5 5 4 4 4 4 4 3 3 3 3 3
13 12 11 13 15 15 14 15 15 13 13 13 12 11 10 8 7 7 7 7 7 7 7 7 7 7 6 6 6 5 5 5 4 4 4 3 3 3 3 3 3 2 2 2
12 12 12 12 13 14 14 15 14 12 11 11 11 10 8 7 7 6 6 6 6 6 6 6 6 6 5 5 5 4 4 4 4 3 3 3 3 3 3 2 2 2 1 1
11 11 11 11 13 13 12 13 14 12 11 11 10 9 8 8 8 6 6 6 6 6 6 5 5 5 4 4 4 4 4 3 3 3 3 3 3 2 2 2 2 1 1 1
10 10 11 11 11 11 11 13 13 12 10 10 10 9 8 7 7 6 5 5 5 5 5 5 4 4 4 4 4 4 3 3 3 3 3 3 2 2 2 2 1 1 1 0
10 10 10 10 10 10 10 11 10 9 9 9 9 8 7 6 5 5 5 4 4 4 4 4 4 4 4 4 4 3 3 3 3 3 3 3 2 2 2 1 1 1 0 0
10 10 9 9 9 8 9 9 9 9 9 8 8 7 6 5 5 4 4 4 4 4 4 4 4 4 4 4 4 4 3 3 3 3 3 2 2 2 2 1 1 1 0 -0
10 10 9 8 8 8 8 8 8 9 8 8 7 6 6 5 4 4 4 4 4 4 4 4 4 4 4 4 4 4 3 3 3 3 3 2 2 2 1 1 1 0 -0 -1
10 10 9 8 8 7 7 7 7 7 7 7 6 6 6 5 4 4 4 4 4 4 4 4 4 4 4 4 4 4 4 3 3 3 3 2 2 2 1 1 0 -0 -0 -1
9 9 8 8 8 7 7 7 7 6 6 6 6 5 5 5 5 5 4 5 5 5 4 4 4 4 4 4 4 4 4 4 3 3 3 2 2 2 1 1 0 -0 -1 -1
Wind_Speed
6 5 7 10 9 8 6 7 11 14 12 8 11 14 17 14 10 11 14 16 16 17 17 16 17 18 17 17 18 18 17 16 13 10 9 8 7 6 5 5 9 11 13 13
3 8 12 9 7 7 9 11 13 14 13 6 7 10 11 11 10 14 17 17 17 15 13 15 16 17 18 18 17 16 16 15 13 10 7 5 7 6 5 5 8 11 13 12
12 9 8 9 9 10 11 12 15 15 15 8 4 9 9 9 5 7 12 14 15 17 19 20 18 17 16 16 17 15 14 13 11 11 9 9 7 6 5 6 5 6 12 13
9 12 9 9 12 12 13 14 14 13 9 8 1 5 11 8 7 6 8 9 11 13 15 18 18 17 16 14 12 12 11 10 10 10 11 11 8 6 5 5 5 6 10 11
9 9 12 14 17 15 14 15 10 7 3 3 5 2 10 8 9 10 10 11 10 12 14 15 15 15 13 12 11 11 12 11 10 10 11 10 8 7 7 7 8 7 6 8
11 9 9 13 16 14 12 5 3 5 5 3 6 2 9 7 9 9 7 5 7 9 11 11 10 12 11 11 11 11 12 10 9 10 10 11 13 12 11 9 8 6 5 5
10 13 9 7 9 9 4 4 3 4 4 6 6 3 9 10 9 7 5 1 4 9 12 13 13 13 12 12 11 10 12 10 9 10 9 10 12 12 11 10 8 8 6 4
9 11 9 8 10 9 6 11 9 7 6 6 5 4 5 7 7 6 7 9 12 13 13 13 13 13 12 12 10 10 11 11 10 10 9 9 10 8 7 7 7 7 6 5
10 9 9 10 9 10 7 7 11 9 5 2 6 5 4 9 14 15 15 16 15 15 15 15 14 13 12 11 11 10 11 10 10 10 10 10 9 9 8 8 7 6 6 6
9 7 7 5 2 3 9 10 7 7 7 5 5 3 3 5 8 11 12 13 13 14 14 14 13 12 11 10 10 10 11 10 10 9 8 9 9 9 9 9 8 8 7 6
5 7 7 3 1 3 1 3 6 7 7 8 3 2 4 1 5 9 11 11 13 13 12 11 10 10 11 10 10 10 11 11 10 9 10 10 9 9 9 8 8 7 6 6
3 5 4 5 4 2 2 2 6 6 6 7 6 2 6 5 7 9 11 11 11 11 11 10 10 9 9 9 9 9 10 10 9 9 10 10 9 9 9 8 7 7 6 5
4 5 3 6 7 8 5 5 3 4 4 4 5 4 6 8 11 11 11 12 11 10 10 9 9 9 9 9 9 9 10 10 9 10 10 10 10 10 9 8 7 7 6 6
3 5 4 2 1 4 6 6 5 5 4 2 5 7 5 7 10 11 11 11 10 10 10 10 9 9 9 9 9 10 10 9 10 11 11 11 9 9 8 8 8 7 7 6
5 4 2 1 3 5 6 8 5 2 4 7 9 8 5 6 8 9 10 11 11 11 10 10 9 9 9 10 10 10 10 10 11 11 11 9 8 8 8 8 7 7 6 6
5 3 5 6 8 7 7 9 5 5 5 13 15 9 6 8 10 11 10 10 10 9 9 10 10 10 9 9 10 11 11 10 10 11 9 8 8 8 8 7 6 6 6 6
3 3 3 3 7 6 7 8 7 9 6 7 6 8 11 10 12 10 9 9 9 9 9 9 9 9 9 9 10 11 10 9 10 9 8 8 7 7 6 6 6 6 6 5
3 2 2 2 5 2 1 8 15 16 14 12 14 13 12 13 11 10 9 8 8 9 9 9 9 10 10 10 9 9 9 9 9 8 7 6 6 6 6 6 6 5 4 4
3 5 3 3 1 2 2 5 3 6 8 8 11 12 14 15 11 8 8 8 8 8 9 9 9 10 10 9 9 9 8 7 7 6 5 5 5 6 5 5 4 3 3 3
5 4 5 4 2 3 1 7 3 10 5 3 6 9 11 9 3 4 5 7 8 9 9 9 9 9 9 8 7 8 7 6 5 4 4 4 5 5 5 4 3 3 2 2
5 5 3 3 3 1 4 9 4 4 3 1 4 5 5 3 5 10 9 9 9 9 9 8 8 7 6 5 6 6 5 4 4 4 4 4 4 4 4 3 3 3 3 4
1 1 1 2 3 4 6 5 4 3 3 4 5 7 10 13 13 12 11 10 9 9 8 7 7 6 4 4 5 5 4 3 3 4 4 4 4 3 4 5 4 5 5 5
0 3 3 2 3 1 4 5 3 3 4 3 5 9 14 13 12 12 10 9 8 7 6 5 6 5 3 2 3 4 2 2 3 3 3 4 4 4 4 5 5 4 4 4
3 1 4 4 3 3 5 5 5 5 5 5 8 11 12 14 13 12 9 8 6 5 5 4 4 4 2 1 2 2 2 2 3 4 4 4 4 4 4 4 4 4 3 3
3 2 3 4 5 5 4 4 6 7 8 10 10 11 13 14 13 11 9 7 6 4 3 4 4 4 3 2 2 2 2 4 4 4 4 4 3 3 3 2 2 3 2 2
2 2 4 5 7 6 4 4 6 8 8 10 12 12 11 11 11 9 8 6 5 5 4 4 3 4 3 4 3 2 3 5 5 4 3 3 2 2 3 2 1 1 3 3
Wind_Direction
203 154 214 224 210 201 230 267 276 278 283 289 272 267 268 261 232 209 197 196 200 205 203 191 186 185 181 180 178 179 173 170 164 159 154 146 139 126 109 98 103 106 106 104
231 234 224 218 231 238 247 261 272 284 283 261 273 280 275 263 224 202 193 195 198 198 196 192 186 182 182 180 178 177 173 169 166 162 152 132 122 107 93 85 82 91 96 98
207 233 220 218 238 242 249 238 250 258 282 308 315 314 313 300 270 211 196 196 197 191 188 188 183 181 178 178 176 176 172 163 154 142 128 118 104 93 91 90 83 85 97 98
230 238 238 228 236 230 251 242 236 245 257 282 321 286 294 293 306 274 249 231 211 198 186 182 178 175 174 172 162 156 148 138 133 132 139 142 140 137 134 125 114 96 98 103
233 221 218 233 240 234 236 247 236 237 230 310 337 303 285 305 296 281 263 244 220 196 182 176 171 167 158 148 140 134 126 122 127 133 140 136 128 123 125 121 117 108 101 107
238 247 214 223 241 236 227 224 20 49 69 317 274 259 288 276 256 271 280 243 203 183 161 148 136 127 119 114 115 119 121 119 126 128 130 135 137 137 137 134 133 127 115 107
265 271 260 245 267 272 198 125 32 339 354 261 270 245 259 278 275 251 251 250 128 132 130 127 123 116 111 107 108 109 110 107 108 112 119 130 135 138 143 144 144 138 127 119
223 264 254 233 219 227 212 154 165 195 223 269 314 236 273 313 355 44 72 79 85 95 105 109 107 106 104 101 99 101 103 103 103 107 109 114 119 123 128 130 133 136 136 132
200 239 254 243 225 181 183 185 177 157 186 237 278 278 336 20 45 55 69 77 82 91 95 95 93 94 96 96 93 97 100 100 100 103 106 107 109 112 116 117 114 120 127 131
188 238 277 288 296 247 183 168 114 135 172 229 271 314 331 4 50 62 76 88 92 94 96 97 99 100 96 96 98 97 100 102 101 102 104 106 101 103 106 108 107 108 110 110
179 204 283 353 78 290 355 151 139 145 160 166 193 299 354 29 89 91 90 98 104 104 104 105 104 103 102 102 103 105 104 102 98 97 99 99 97 98 99 99 100 99 97 100
14 140 244 264 274 262 145 183 152 162 208 164 149 172 7 36 67 89 100 103 101 101 102 104 103 99 95 97 100 100 100 100 99 99 96 93 91 90 89 88 86 86 84 79
38 80 47 349 1 8 28 14 35 120 126 147 143 142 24 39 57 64 87 96 98 97 93 87 86 88 89 90 92 92 93 95 95 94 92 87 83 81 78 76 72 69 67 58
74 79 119 151 288 316 332 348 27 82 109 114 130 123 48 52 67 66 72 81 86 88 90 89 85 85 85 85 87 89 86 87 89 86 84 80 78 79 76 67 60 54 55 57
64 77 52 343 334 354 341 340 355 34 153 144 136 120 97 75 77 74 78 84 86 88 91 94 94 92 91 88 85 84 83 81 86 86 84 79 73 68 64 61 57 56 59 67
35 64 36 2 357 0 2 353 20 49 99 127 123 113 109 92 80 72 71 81 84 86 90 97 98 98 96 95 94 90 86 83 83 82 79 75 70 66 66 63 59 59 58 65
13 65 61 344 337 15 5 354 71 68 49 132 131 131 126 95 73 63 59 72 79 84 87 93 95 92 90 87 90 91 89 85 82 79 76 73 72 68 66 71 64 64 65 70
154 98 113 47 34 42 67 58 80 74 52 68 97 114 114 104 86 64 57 71 77 82 87 90 93 94 91 90 87 87 86 85 85 80 76 74 78 77 75 74 69 66 70 76
163 143 120 106 130 260 49 18 13 105 63 60 105 122 130 127 102 69 56 70 81 85 89 91 94 97 95 92 91 91 86 86 89 88 82 86 91 91 88 80 70 63 70 61
36 94 116 117 146 224 318 329 4 109 96 41 126 146 163 174 138 125 105 96 93 92 94 97 96 95 93 91 92 94 92 90 93 93 92 94 105 106 98 85 63 46 66 59
10 28 85 140 179 248 321 321 5 123 159 70 120 145 150 133 121 128 120 107 102 99 97 96 95 95 97 97 96 96 98 104 113 108 100 101 115 114 102 79 58 53 49 40
34 26 30 142 186 239 333 25 73 137 113 97 103 112 115 116 117 120 119 116 112 106 99 95 95 92 91 97 98 97 106 127 125 114 100 100 110 113 104 85 61 53 54 44
153 198 179 154 174 114 38 80 80 114 114 110 121 129 129 126 126 125 123 120 117 113 107 101 104 99 87 94 109 116 157 160 135 116 114 113 98 87 93 92 80 60 52 47
316 32 107 101 112 93 68 65 56 74 98 111 126 131 130 127 129 128 126 125 124 121 122 117 107 104 99 103 121 164 185 155 135 136 138 130 116 100 87 91 97 89 67 48
281 24 89 110 136 105 66 74 90 90 99 107 112 121 128 129 131 132 132 137 140 138 135 127 122 121 120 102 89 95 105 112 117 128 134 140 143 138 123 113 126 131 157 167
285 164 164 190 187 157 154 137 119 118 121 124 122 118 122 129 133 134 139 145 145 142 136 128 126 122 114 104 91 82 94 107 114 116 131 146 148 149 144 136 95 199 196 199
Height
1485 1493 1499 1496 1495 1497 1497 1501 1503 1493 1482 1485 1484 1480 1471 1465 1468 1469 1471 1473 1475 1476 1477 1480 1483 1486 1491 1494 1497 1500 1502 1506 1511 1514 1516 1519 1522 1526 1529 1531 1533 1534 1536 1537
1488 1493 1487 1486 1488 1491 1495 1501 1500 1491 1479 1480 1481 1478 1468 1462 1461 1461 1464 1466 1468 1470 1473 1476 1478 1482 1485 1488 1492 1496 1498 1501 1505 1509 1512 1515 1519 1522 1525 1528 1530 1531 1532 1534
1489 1485 1481 1484 1488 1491 1493 1498 1495 1493 1481 1478 1479 1482 1474 1463 1459 1458 1459 1459 1460 1462 1464 1467 1471 1475 1479 1484 1487 1491 1495 1498 1502 1506 1509 1512 1516 1519 1521 1524 1526 1528 1529 1531
1482 1478 1479 1482 1485 1487 1494 1482 1483 1484 1489 1493 1484 1501 1482 1468 1463 1459 1457 1456 1456 1457 1459 1461 1464 1469 1474 1479 1484 1488 1492 1497 1501 1504 1507 1509 1512 1514 1517 1520 1523 1525 1526 1528
1478 1473 1476 1480 1476 1477 1480 1472 1475 1477 1483 1492 1489 1497 1489 1470 1465 1458 1453 1451 1452 1453 1455 1458 1461 1465 1470 1476 1481 1486 1490 1495 1498 1502 1505 1508 1510 1513 1516 1518 1519 1521 1523 1525
1470 1466 1467 1468 1465 1466 1466 1470 1474 1483 1493 1505 1493 1495 1495 1474 1463 1454 1448 1447 1448 1450 1453 1457 1461 1466 1471 1476 1481 1486 1490 1494 1497 1500 1503 1506 1508 1510 1512 1515 1517 1518 1520 1522
1473 1465 1461 1461 1465 1462 1465 1484 1504 1505 1514 1510 1490 1491 1489 1463 1454 1450 1447 1446 1446 1449 1454 1459 1463 1468 1474 1479 1483 1487 1490 1494 1497 1500 1501 1504 1505 1508 1510 1512 1514 1516 1517 1519
1481 1476 1459 1455 1459 1465 1466 1477 1503 1513 1516 1507 1489 1492 1481 1461 1453 1449 1448 1450 1450 1454 1459 1463 1468 1473 1478 1482 1487 1489 1491 1495 1498 1499 1501 1503 1504 1506 1508 1510 1512 1513 1515 1517
1473 1471 1451 1448 1447 1453 1464 1472 1472 1491 1497 1504 1500 1485 1473 1463 1459 1456 1456 1457 1459 1462 1465 1469 1474 1478 1482 1485 1489 1492 1494 1496 1497 1499 1501 1502 1503 1505 1507 1509 1510 1512 1514 1516
1458 1465 1453 1445 1443 1446 1450 1457 1478 1492 1505 1512 1499 1491 1490 1476 1471 1465 1464 1465 1467 1469 1471 1474 1478 1481 1485 1488 1490 1493 1495 1496 1498 1500 1501 1502 1503 1505 1507 1508 1510 1511 1513 1514
1452 1464 1458 1451 1452 1454 1452 1457 1466 1482 1488 1503 1506 1503 1483 1480 1474 1471 1470 1471 1472 1474 1477 1479 1482 1484 1486 1489 1491 1492 1494 1496 1498 1500 1501 1502 1504 1505 1507 1508 1510 1511 1512 1514
1455 1463 1467 1457 1449 1444 1447 1453 1462 1479 1484 1488 1498 1504 1484 1482 1477 1474 1474 1476 1477 1479 1481 1482 1484 1486 1487 1490 1492 1493 1494 1496 1499 1501 1502 1503 1505 1506 1507 1509 1510 1511 1512 1513
1457 1466 1474 1470 1466 1455 1454 1454 1455 1463 1476 1486 1496 1502 1488 1485 1482 1480 1479 1480 1482 1483 1485 1487 1488 1489 1491 1492 1493 1494 1496 1498 1500 1502 1503 1504 1505 1507 1508 1509 1510 1511 1512 1512
1456 1468 1476 1481 1477 1467 1463 1458 1457 1465 1480 1484 1486 1494 1493 1489 1487 1486 1485 1485 1486 1488 1489 1490 1491 1492 1494 1495 1496 1497 1498 1500 1502 1503 1504 1505 1506 1507 1508 1510 1510 1511 1511 1511
1461 1471 1468 1468 1465 1462 1462 1459 1458 1462 1466 1477 1483 1489 1494 1492 1491 1490 1489 1489 1490 1491 1492 1493 1494 1495 1496 1497 1498 1499 1500 1502 1503 1504 1505 1506 1507 1508 1509 1510 1511 1511 1511 1511
1467 1471 1471 1471 1464 1462 1463 1460 1458 1462 1464 1472 1481 1490 1493 1494 1493 1493 1492 1492 1492 1493 1494 1495 1496 1497 1498 1499 1500 1501 1502 1503 1504 1505 1506 1507 1509 1509 1510 1511 1511 1511 1511 1511
1473 1475 1479 1481 1471 1466 1476 1470 1466 1471 1471 1472 1481 1488 1493 1495 1495 1496 1496 1496 1495 1496 1497 1497 1498 1499 1500 1501 1502 1503 1504 1505 1506 1507 1509 1510 1510 1511 1511 1512 1512 1511 1511 1510
1473 1477 1483 1483 1479 1488 1487 1474 1473 1477 1480 1479 1482 1489 1494 1497 1499 1500 1500 1500 1499 1499 1499 1499 1500 1500 1502 1503 1504 1505 1506 1507 1508 1509 1511 1512 1512 1513 1513 1512 1512 1511 1511 1510
1469 1474 1482 1488 1488 1485 1480 1478 1478 1481 1490 1488 1489 1494 1497 1498 1500 1503 1504 1503 1502 1501 1501 1502 1502 1503 1504 1505 1507 1508 1509 1510 1511 1512 1513 1514 1514 1514 1514 1513 1512 1511 1510 1509
1470 1472 1482 1487 1489 1491 1488 1479 1477 1481 1493 1492 1491 1494 1496 1497 1500 1505 1505 1504 1504 1504 1504 1504 1505 1506 1507 1509 1510 1511 1512 1513 1514 1515 1515 1516 1516 1516 1515 1514 1513 1511 1510 1509
1481 1481 1484 1487 1490 1488 1486 1480 1476 1488 1495 1493 1492 1493 1493 1495 1498 1502 1504 1505 1505 1506 1507 1508 1509 1510 1511 1513 1514 1514 1515 1516 1517 1517 1517 1517 1517 1516 1516 1514 1513 1512 1510 1509
1487 1488 1487 1488 1492 1494 1486 1482 1487 1491 1491 1491 1491 1492 1493 1495 1498 1501 1504 1506 1507 1508 1510 1511 1512 1513 1515 1516 1517 1517 1518 1519 1519 1519 1519 1519 1518 1517 1516 1515 1514 1512 1510 1508
1486 1486 1487 1489 1493 1490 1487 1487 1488 1488 1489 1490 1491 1492 1493 1496 1499 1502 1505 1507 1510 1511 1513 1515 1516 1517 1518 1519 1520 1520 1521 1521 1521 1521 1520 1520 1519 1518 1517 1515 1514 1512 1510 1507
1485 1482 1485 1489 1491 1490 1489 1488 1488 1488 1489 1490 1491 1492 1494 1496 1500 1504 1507 1510 1512 1515 1517 1518 1519 1520 1521 1522 1522 1523 1523 1522 1522 1522 1521 1520 1519 1518 1517 1516 1514 1512 1510 1507
1484 1483 1485 1489 1491 1491 1491 1490 1490 1490 1490 1491 1493 1494 1496 1499 1502 1506 1509 1513 1515 1517 1519 1521 1522 1523 1524 1524 1524 1524 1524 1524 1523 1522 1521 1521 1520 1519 1517 1516 1514 1512 1510 1507
1483 1483 1485 1487 1486 1488 1490 1491 1491 1491 1492 1493 1495 1497 1500 1503 1506 1509 1513 1516 1518 1520 1522 1523 1524 1525 1526 1526 1526 1526 1525 1525 1524 1523 1522 1521 1520 1519 1517 1516 1514 1512 1510 1507